Showing default

TELSTAR 2 (A-41), 573

Orbit data source: Space-Track

TELSTAR 2 (A-41), 573 is a payload satellite owned by AT&T (US) in HEO that was launched on Tue, 07 May 1963 UTC via a THOR DELTA B launch vehicle from the Air Force Eastern Test Range (AFETR). Payload-class satellites include a variety of spacecraft equipped with specific instruments for various scientific and technological missions. These include communications satellites like Starlink; space stations such as the ISS; scientific satellites like the Hubble; Earth observation satellites from companies like Planet Labs, Umbra, and HawkEye 360; GPS; miniature CubeSats for education and research; and military/defense satellites.

Loading next visibility...
Identifier
573, 1963-013A
Orbit
HEO
Country
Flag of USUS
Related business
Manufacturer
AT&T/BTL
Mission
Spacecraft
Bus & Motor
TSX, Unknown motor
Mass
79 kg wet, 79 kg dry
Launch date (UTC)
1963-05-07 (63 years ago)
Launch vehicle
THOR DELTA B
Launch site
Air Force Eastern Test Range (AFETR)
Object type
Payload
Rocket body
Debris
Shape & HBR
Unknown
Radar Cross Section
Medium (>0.1 m² and <1 m²)

Expand to show TLE details & history
Last TLE update: 16 hours ago

TLE from 16 hours ago
0 TELSTAR 2 (A-41)
1   573U 63013A   26122.44767928  .00000001  00000-0  10208-2 0  9992
2   573  42.7668  32.8393 4008401  95.2659  34.7849  6.39270547583229
Epoch: 2026-05-02T10:44Z
TLE epoch observation values (Epoch: 2026-05-02T10:44:39.489Z)
Latitude
6.69343°
Longitude
-175.94858°
Altitude
2,940.65 km
Speed
7.284 km/s
True Right ascension
13h 42m 19s
True Declination
6° 39' 47"
Sunlit
Object was in full shadow at epoch
Visualization orbit readout
Latitude
Unknown
Longitude
Unknown
Altitude
Unknown
Speed
Unknown
Apparent Right ascension
Unknown
Apparent Declination
Unknown
Sunlit
N/A
Visualization observer readout
Local Sidereal Time
10:26:15
Azimuth
Unknown
Elevation
Unknown
Doppler factor
Unknown
Orbital elements
Apogee altitude
10,802.999 km
Perigee altitude
970.488 km
Semi-major axis
12,264.88 km
Eccentricity
0.40084
Inclination
42.7668°
RAAN
32.8393°
Arg. of periapsis
95.2659°
True anomaly
74.84218°
Mean anomaly
34.7849°
Eccentric anomaly
53.1669°
Mean motion
1.59789 °/min
Orbital period
225.3 mins
BSTAR
0.0010208
Loading maneuver chart data...
Computing Atmospheric mass density...
Loading historical data...
Loading historical data...
Loading historical data...
Loading historical data...
Loading historical data...
Loading historical data...
Loading historical data...
Other satellites on launch #13 in the year 1963 (1963-05-07 UTC)

Documentation

Showing up to 5 results
|